Regional Weather Roundup
Issued by NWS Portland, ME

Home | Current Version | Previous Version | Text Only | Print | Product List | Glossary On
Versions: 1 2 3 4 5 6 7 8 9 10 11 12 13 14 15 16 17 18 19 20 21 22 23 24 25 26 27 28 29 30 31 32 33 34 35 36 37 38 39 40 41 42 43 44 45 46 47 48 49 50
000
ASUS41 KGYX 221610
RWRGYX
WEATHER ROUNDUP FOR MAINE AND NEW HAMPSHIRE
NATIONAL WEATHER SERVICE GRAY ME
1200 PM EDT TUE JUL 22 2014

MEZ002-005-006-010-012-015-018-020-021-024-026-027-029-221700-
MAINE

CITY           SKY/WX    TMP DP  RH WIND       PRES   REMARKS
PORTLAND       MOSUNNY   81  67  62 SE7       30.09F
SANFORD        SUNNY     86  63  45 N5        30.09F
BAR HARBOR     SUNNY     73  64  73 SW10      30.09F
WISCASSET      SUNNY     79  64  60 SE8       30.11F
ROCKLAND       SUNNY     73  66  78 S8        30.08F
FRYEBURG       SUNNY     86  66  51 VRB5      30.09F
LEWISTONAUBURN SUNNY     81  66  61 SW3       30.10F
AUGUSTA        SUNNY     79  65  62 VRB3      30.09F
WATERVILLE     MOSUNNY   81  68  65 S5        30.03F
BANGOR         MOSUNNY   82  66  58 SE9       30.06F
GREENVILLE       N/A     77  62  59 VRB3      30.08F
MILLINOCKET    MOSUNNY   83  63  50 VRB3      30.06F
HOULTON        PTSUNNY   81  61  50 W7        30.02F
PRESQUE ISLE   PTSUNNY   81  61  50 SW8       30.01F
FRENCHVILLE    MOSUNNY   79  62  56 SW12      30.00F
CARIBOU        MOSUNNY   82  61  48 SW13      29.99F
$$

NHZ002-005-008-009-011-012-014-221700-
NEW HAMPSHIRE

CITY           SKY/WX    TMP DP  RH WIND       PRES   REMARKS
PORTSMOUTH     MOSUNNY   84  67  56 VRB1      30.09F
ROCHESTER      SUNNY     84  64  50 VRB3      30.10F
NASHUA         MOSUNNY   85  65  51 CALM      30.11F
MANCHESTER     MOSUNNY   85  66  53 VRB5      30.09F
CONCORD        SUNNY     84  66  54 NW5       30.11F
LACONIA        SUNNY     81  64  57 CALM      30.09F
PLYMOUTH       FAIR      82  64  53 CALM      30.08F
BERLIN         SUNNY     82  62  50 VRB5      30.10F
WHITEFIELD     MOSUNNY   81  63  54 W6        30.11F
JAFFREY        SUNNY     82  61  48 SW6       30.16S
LEBANON        LGT RAIN  78  68  71 SW7       30.11F
MT WASHINGTON  FOG       55  52  88 W22         N/A  VSB 1/4
$$

VTZ005-007-008-221700-
VERMONT

CITY           SKY/WX    TMP DP  RH WIND       PRES   REMARKS
ST JOHNSBURY     N/A     81  63  54 MISG      30.07F
MONTPELIER     MOSUNNY   83  65  54 S3        30.14F
BURLINGTON     MOSUNNY   85  63  47 S10       30.07F
$$

MAZ007-012-024-CTZ003-RIZ002-NYZ038-NYZ072-221700-
SOUTHERN NEW ENGLAND AND NY

CITY           SKY/WX    TMP DP  RH WIND       PRES   REMARKS
BOSTON         MOSUNNY   81  67  62 SE9       30.11S
WORCESTER      MOSUNNY   80  64  58 W8        30.16S
NANTUCKET      SUNNY     73  63  70 SW8       30.16R
PROVIDENCE     MOSUNNY   84  69  60 S10       30.12F
HARTFORD       MOSUNNY   86  67  52 SW6       30.11F
ALBANY         MOSUNNY   82  68  62 CALM      30.12F
NEW YORK CITY  MOSUNNY   84  65  52 SW10      30.13F
$$

ANZ081-ANZ082-ANZ150-NHZ014-MEZ023>029-221700-
COASTAL MARINE OBSERVATIONS

STATION/POSITION TIME  TEMP    WIND        PRES    WAVE
                       AIR SEA DIR/SP/G            HT/PER
                 (UTC) (F)     (DEG/KT/KT) (MB)    (FT/S)
MOUNT DESERT ROC 1600   59                 1019.5F
MATINICUS ROCK   1500          230/  9/  9 1020.3R
PORTLAND WX BUOY 1600   65 65  160/  8/  8 1019.2F   2/ 8
WELLS            1600   67 62  180/  9/ 11 1018.6F
ISLE OF SHOALS   1500   67     170/  8/  9 1019.5S
JEFFREYS LEDGE   1500      67                N/A     2/ 8
CASHES LEDGE BUO 1600   66 66  VRB  6/  8  1019.9R   2/ 7
$$

.............KEY..............
   WCI - WIND CHILL
   TC  - TEMPERATURE IN CELSIUS
   VSB - VISIBILITY IN MILES
   HX  - HEAT INDEX
   FAIR- INDICATES FEW OR NO CLOUDS BELOW 12,000 FT, WITH NO
         SIGNIFICANT WEATHER AND/OR OBSTRUCTIONS TO VISIBILITY.




USA.gov is the U.S. government's official web portal to all federal, state and local government web resources and services.